Time,TemperatureF,DewpointF,PressureIn,WindDirection,WindDirectionDegrees,WindSpeedMPH,WindSpeedGustMPH,Humidity,HourlyPrecipIn,Conditions,Clouds,dailyrainin,SoftwareType,DateUTC
2014-08-29 00:02:00,45.0,38.9,30.31,NW,315,0.0,0.0,79,0.00,,,0.00,Weather View 32 v70,2014-08-28 14:02:00,
2014-08-29 00:07:00,44.0,37.6,30.31,NW,315,0.0,1.0,78,0.00,,,0.00,Weather View 32 v70,2014-08-28 14:07:00,
2014-08-29 00:12:00,44.0,37.6,30.31,NW,315,0.0,0.0,78,0.00,,,0.00,Weather View 32 v70,2014-08-28 14:12:00,
2014-08-29 00:17:00,44.0,36.9,30.32,NW,315,0.0,0.0,76,0.00,,,0.00,Weather View 32 v70,2014-08-28 14:17:00,
2014-08-29 00:22:00,44.0,37.2,30.31,NW,315,0.0,0.0,77,0.00,,,0.00,Weather View 32 v70,2014-08-28 14:22:00,
2014-08-29 00:27:00,44.0,37.2,30.31,NW,315,0.0,0.0,77,0.00,,,0.00,Weather View 32 v70,2014-08-28 14:27:00,
2014-08-29 00:32:00,44.0,37.9,30.31,NW,315,0.0,0.0,79,0.00,,,0.00,Weather View 32 v70,2014-08-28 14:32:00,
2014-08-29 00:37:00,44.0,37.2,30.31,NW,315,0.0,0.0,77,0.00,,,0.00,Weather View 32 v70,2014-08-28 14:37:00,
2014-08-29 00:42:00,44.0,37.9,30.31,NW,315,0.0,0.0,79,0.00,,,0.00,Weather View 32 v70,2014-08-28 14:42:00,
2014-08-29 00:47:00,43.0,36.6,30.31,NW,315,0.0,0.0,78,0.00,,,0.00,Weather View 32 v70,2014-08-28 14:47:00,
2014-08-29 00:52:00,43.0,36.9,30.32,NW,315,0.0,0.0,79,0.00,,,0.00,Weather View 32 v70,2014-08-28 14:52:00,
2014-08-29 00:57:00,43.0,35.6,30.32,NW,315,0.0,0.0,75,0.00,,,0.00,Weather View 32 v70,2014-08-28 14:57:00,
2014-08-29 01:02:00,44.0,36.2,30.31,NW,315,0.0,0.0,74,0.00,,,0.00,Weather View 32 v70,2014-08-28 15:02:00,
2014-08-29 01:07:00,44.0,36.2,30.31,NW,315,0.0,0.0,74,0.00,,,0.00,Weather View 32 v70,2014-08-28 15:07:00,
2014-08-29 01:12:00,44.0,36.6,30.31,NW,315,0.0,0.0,75,0.00,,,0.00,Weather View 32 v70,2014-08-28 15:12:00,
2014-08-29 01:17:00,43.0,35.3,30.31,NW,315,0.0,0.0,74,0.00,,,0.00,Weather View 32 v70,2014-08-28 15:17:00,
2014-08-29 01:22:00,43.0,35.9,30.32,NW,315,0.0,0.0,76,0.00,,,0.00,Weather View 32 v70,2014-08-28 15:22:00,
2014-08-29 01:27:00,43.0,35.6,30.32,NW,315,0.0,0.0,75,0.00,,,0.00,Weather View 32 v70,2014-08-28 15:27:00,
2014-08-29 01:32:00,43.0,35.9,30.31,NW,315,0.0,0.0,76,0.00,,,0.00,Weather View 32 v70,2014-08-28 15:32:00,
2014-08-29 01:37:00,43.0,35.6,30.31,NW,315,0.0,0.0,75,0.00,,,0.00,Weather View 32 v70,2014-08-28 15:37:00,
2014-08-29 01:42:00,43.0,35.6,30.31,NW,315,0.0,0.0,75,0.00,,,0.00,Weather View 32 v70,2014-08-28 15:42:00,
2014-08-29 01:47:00,43.0,35.3,30.31,NW,315,0.0,0.0,74,0.00,,,0.00,Weather View 32 v70,2014-08-28 15:47:00,
2014-08-29 01:52:00,43.0,35.9,30.31,NW,315,0.0,0.0,76,0.00,,,0.00,Weather View 32 v70,2014-08-28 15:52:00,
2014-08-29 01:57:00,43.0,35.3,30.31,NW,315,0.0,0.0,74,0.00,,,0.00,Weather View 32 v70,2014-08-28 15:57:00,
2014-08-29 02:02:00,43.0,35.9,30.31,NW,315,0.0,0.0,76,0.00,,,0.00,Weather View 32 v70,2014-08-28 16:02:00,
2014-08-29 02:07:00,42.0,34.3,30.31,NW,315,0.0,0.0,74,0.00,,,0.00,Weather View 32 v70,2014-08-28 16:07:00,
2014-08-29 02:12:00,43.0,35.9,30.31,NW,315,0.0,0.0,76,0.00,,,0.00,Weather View 32 v70,2014-08-28 16:12:00,
2014-08-29 02:17:00,43.0,35.3,30.31,NW,315,0.0,0.0,74,0.00,,,0.00,Weather View 32 v70,2014-08-28 16:17:00,
2014-08-29 02:22:00,43.0,35.3,30.32,NW,315,0.0,0.0,74,0.00,,,0.00,Weather View 32 v70,2014-08-28 16:22:00,
2014-08-29 02:27:00,43.0,34.6,30.32,NW,315,0.0,0.0,72,0.00,,,0.00,Weather View 32 v70,2014-08-28 16:27:00,
2014-08-29 02:32:00,44.0,35.5,30.31,NW,315,0.0,0.0,72,0.00,,,0.00,Weather View 32 v70,2014-08-28 16:32:00,
2014-08-29 02:37:00,44.0,35.5,30.31,NW,315,0.0,0.0,72,0.00,,,0.00,Weather View 32 v70,2014-08-28 16:37:00,
2014-08-29 02:42:00,44.0,35.5,30.31,NW,315,0.0,0.0,72,0.00,,,0.00,Weather View 32 v70,2014-08-28 16:42:00,
2014-08-29 02:47:00,44.0,35.2,30.31,NW,315,0.0,0.0,71,0.00,,,0.00,Weather View 32 v70,2014-08-28 16:47:00,
2014-08-29 02:52:00,45.0,36.2,30.30,NW,315,0.0,0.0,71,0.00,,,0.00,Weather View 32 v70,2014-08-28 16:52:00,
2014-08-29 02:57:00,45.0,35.8,30.30,NW,315,0.0,0.0,70,0.00,,,0.00,Weather View 32 v70,2014-08-28 16:57:00,
2014-08-29 03:02:00,46.0,36.8,30.30,NW,315,0.0,0.0,70,0.00,,,0.00,Weather View 32 v70,2014-08-28 17:02:00,
2014-08-29 03:07:00,46.0,36.4,30.30,NW,315,0.0,0.0,69,0.00,,,0.00,Weather View 32 v70,2014-08-28 17:07:00,
2014-08-29 03:12:00,46.0,36.4,30.30,NW,315,0.0,0.0,69,0.00,,,0.00,Weather View 32 v70,2014-08-28 17:12:00,
2014-08-29 03:17:00,46.0,36.4,30.30,NW,315,0.0,0.0,69,0.00,,,0.00,Weather View 32 v70,2014-08-28 17:17:00,
2014-08-29 03:22:00,47.0,37.3,30.30,NW,315,0.0,0.0,69,0.00,,,0.00,Weather View 32 v70,2014-08-28 17:22:00,
2014-08-29 03:27:00,47.0,37.0,30.30,NW,315,0.0,0.0,68,0.00,,,0.00,Weather View 32 v70,2014-08-28 17:27:00,
2014-08-29 03:33:00,47.0,37.3,30.30,NW,315,0.0,0.0,69,0.00,,,0.00,Weather View 32 v70,2014-08-28 17:33:00,
2014-08-29 03:38:00,47.0,37.0,30.30,NW,315,0.0,0.0,68,0.00,,,0.00,Weather View 32 v70,2014-08-28 17:38:00,
2014-08-29 03:43:00,47.0,37.0,30.30,NW,315,0.0,0.0,68,0.00,,,0.00,Weather View 32 v70,2014-08-28 17:43:00,
2014-08-29 03:48:00,47.0,36.6,30.30,NW,315,0.0,0.0,67,0.00,,,0.00,Weather View 32 v70,2014-08-28 17:48:00,
2014-08-29 03:53:00,48.0,38.3,30.30,NW,315,0.0,0.0,69,0.00,,,0.00,Weather View 32 v70,2014-08-28 17:53:00,
2014-08-29 03:58:00,47.0,36.6,30.30,NW,315,0.0,0.0,67,0.00,,,0.00,Weather View 32 v70,2014-08-28 17:58:00,
2014-08-29 04:03:00,48.0,38.3,30.30,NW,315,0.0,0.0,69,0.00,,,0.00,Weather View 32 v70,2014-08-28 18:03:00,
2014-08-29 04:08:00,48.0,37.9,30.30,NW,315,0.0,0.0,68,0.00,,,0.00,Weather View 32 v70,2014-08-28 18:08:00,
2014-08-29 04:13:00,48.0,38.3,30.30,NW,315,0.0,0.0,69,0.00,,,0.00,Weather View 32 v70,2014-08-28 18:13:00,
2014-08-29 04:18:00,48.0,37.9,30.30,NW,315,0.0,0.0,68,0.00,,,0.00,Weather View 32 v70,2014-08-28 18:18:00,
2014-08-29 04:23:00,48.0,38.3,30.30,NW,315,0.0,0.0,69,0.00,,,0.00,Weather View 32 v70,2014-08-28 18:23:00,
2014-08-29 04:28:00,48.0,37.9,30.30,NW,315,0.0,0.0,68,0.00,,,0.00,Weather View 32 v70,2014-08-28 18:28:00,
2014-08-29 04:33:00,48.0,37.9,30.30,NW,315,0.0,0.0,68,0.00,,,0.00,Weather View 32 v70,2014-08-28 18:33:00,
2014-08-29 04:38:00,48.0,37.5,30.30,NW,315,0.0,0.0,67,0.00,,,0.00,Weather View 32 v70,2014-08-28 18:38:00,
2014-08-29 04:43:00,49.0,38.9,30.30,NW,315,0.0,0.0,68,0.00,,,0.00,Weather View 32 v70,2014-08-28 18:43:00,
2014-08-29 04:48:00,48.0,37.5,30.30,NW,315,0.0,0.0,67,0.00,,,0.00,Weather View 32 v70,2014-08-28 18:48:00,
2014-08-29 04:53:00,49.0,38.9,30.30,NW,315,0.0,0.0,68,0.00,,,0.00,Weather View 32 v70,2014-08-28 18:53:00,
2014-08-29 04:58:00,49.0,38.5,30.30,NW,315,0.0,0.0,67,0.00,,,0.00,Weather View 32 v70,2014-08-28 18:58:00,
2014-08-29 05:03:00,49.0,38.5,30.30,NW,315,0.0,0.0,67,0.00,,,0.00,Weather View 32 v70,2014-08-28 19:03:00,
2014-08-29 05:08:00,48.0,37.5,30.30,West,270,0.0,0.0,67,0.00,,,0.00,Weather View 32 v70,2014-08-28 19:08:00,
2014-08-29 05:13:00,49.0,38.9,30.30,West,270,0.0,0.0,68,0.00,,,0.00,Weather View 32 v70,2014-08-28 19:13:00,
2014-08-29 05:18:00,48.0,37.5,30.30,SSE,157,0.0,0.0,67,0.00,,,0.00,Weather View 32 v70,2014-08-28 19:18:00,
2014-08-29 05:23:00,49.0,38.5,30.30,ESE,112,0.0,2.0,67,0.00,,,0.00,Weather View 32 v70,2014-08-28 19:23:00,
2014-08-29 05:28:00,48.0,37.5,30.30,ESE,112,0.0,2.0,67,0.00,,,0.00,Weather View 32 v70,2014-08-28 19:28:00,
2014-08-29 05:33:00,48.0,37.9,30.30,ESE,112,0.0,2.0,68,0.00,,,0.00,Weather View 32 v70,2014-08-28 19:33:00,
2014-08-29 05:38:00,48.0,37.9,30.30,ESE,112,0.0,2.0,68,0.00,,,0.00,Weather View 32 v70,2014-08-28 19:38:00,
2014-08-29 05:43:00,48.0,37.9,30.30,ESE,112,0.0,2.0,68,0.00,,,0.00,Weather View 32 v70,2014-08-28 19:43:00,
2014-08-29 05:48:00,48.0,37.9,30.30,ESE,112,0.0,2.0,68,0.00,,,0.00,Weather View 32 v70,2014-08-28 19:48:00,
2014-08-29 05:53:00,48.0,38.7,30.30,ESE,112,0.0,2.0,70,0.00,,,0.00,Weather View 32 v70,2014-08-28 19:53:00,
2014-08-29 05:58:00,48.0,39.0,30.30,ESE,112,0.0,2.0,71,0.00,,,0.00,Weather View 32 v70,2014-08-28 19:58:00,
2014-08-29 06:03:00,48.0,38.7,30.31,SE,135,0.0,2.0,70,0.00,,,0.00,Weather View 32 v70,2014-08-28 20:03:00,
2014-08-29 06:08:00,48.0,38.7,30.31,SE,135,0.0,2.0,70,0.00,,,0.00,Weather View 32 v70,2014-08-28 20:08:00,
2014-08-29 06:13:00,48.0,39.4,30.31,SE,135,0.0,2.0,72,0.00,,,0.00,Weather View 32 v70,2014-08-28 20:13:00,
2014-08-29 06:18:00,48.0,37.5,30.31,SE,135,0.0,2.0,67,0.00,,,0.00,Weather View 32 v70,2014-08-28 20:18:00,
2014-08-29 06:23:00,48.0,39.0,30.32,SE,135,0.0,2.0,71,0.00,,,0.00,Weather View 32 v70,2014-08-28 20:23:00,
2014-08-29 06:28:00,47.0,37.3,30.32,SE,135,0.0,1.0,69,0.00,,,0.00,Weather View 32 v70,2014-08-28 20:28:00,
2014-08-29 06:33:00,48.0,37.9,30.32,SE,135,0.0,0.0,68,0.00,,,0.00,Weather View 32 v70,2014-08-28 20:33:00,
2014-08-29 06:38:00,47.0,36.6,30.32,SE,135,0.0,0.0,67,0.00,,,0.00,Weather View 32 v70,2014-08-28 20:38:00,
2014-08-29 06:43:00,47.0,36.6,30.33,ESE,112,0.0,0.0,67,0.00,,,0.00,Weather View 32 v70,2014-08-28 20:43:00,
2014-08-29 06:48:00,47.0,36.6,30.33,ESE,112,0.0,0.0,67,0.00,,,0.00,Weather View 32 v70,2014-08-28 20:48:00,
2014-08-29 06:53:00,48.0,37.9,30.32,ESE,112,0.0,0.0,68,0.00,,,0.00,Weather View 32 v70,2014-08-28 20:53:00,
2014-08-29 06:58:00,47.0,36.6,30.32,ESE,112,0.0,0.0,67,0.00,,,0.00,Weather View 32 v70,2014-08-28 20:58:00,
2014-08-29 07:03:00,48.0,38.3,30.33,ESE,112,0.0,0.0,69,0.00,,,0.00,Weather View 32 v70,2014-08-28 21:03:00,
2014-08-29 07:08:00,47.0,36.6,30.33,ESE,112,0.0,0.0,67,0.00,,,0.00,Weather View 32 v70,2014-08-28 21:08:00,
2014-08-29 07:13:00,48.0,37.9,30.33,ESE,112,0.0,0.0,68,0.00,,,0.00,Weather View 32 v70,2014-08-28 21:13:00,
2014-08-29 07:18:00,47.0,36.6,30.33,ESE,112,0.0,0.0,67,0.00,,,0.00,Weather View 32 v70,2014-08-28 21:18:00,
2014-08-29 07:23:00,48.0,37.9,30.34,ESE,112,0.0,0.0,68,0.00,,,0.00,Weather View 32 v70,2014-08-28 21:23:00,
2014-08-29 07:28:00,48.0,37.9,30.34,ESE,112,0.0,0.0,68,0.00,,,0.00,Weather View 32 v70,2014-08-28 21:28:00,
2014-08-29 07:33:00,48.0,37.9,30.34,ESE,112,0.0,0.0,68,0.00,,,0.00,Weather View 32 v70,2014-08-28 21:33:00,
2014-08-29 07:38:00,48.0,37.9,30.34,ESE,112,0.0,0.0,68,0.00,,,0.00,Weather View 32 v70,2014-08-28 21:38:00,
2014-08-29 07:43:00,48.0,37.9,30.34,ESE,112,0.0,0.0,68,0.00,,,0.00,Weather View 32 v70,2014-08-28 21:43:00,
2014-08-29 07:48:00,48.0,37.5,30.34,SE,135,0.0,0.0,67,0.00,,,0.00,Weather View 32 v70,2014-08-28 21:48:00,
2014-08-29 07:53:00,48.0,37.9,30.34,SE,135,0.0,0.0,68,0.00,,,0.00,Weather View 32 v70,2014-08-28 21:53:00,
2014-08-29 07:58:00,48.0,37.9,30.34,SE,135,0.0,0.0,68,0.00,,,0.00,Weather View 32 v70,2014-08-28 21:58:00,
2014-08-29 08:03:00,49.0,38.9,30.34,SE,135,0.0,0.0,68,0.00,,,0.00,Weather View 32 v70,2014-08-28 22:03:00,
2014-08-29 08:08:00,49.0,38.5,30.34,SE,135,0.0,0.0,67,0.00,,,0.00,Weather View 32 v70,2014-08-28 22:08:00,
2014-08-29 08:13:00,49.0,38.5,30.34,SE,135,0.0,0.0,67,0.00,,,0.00,Weather View 32 v70,2014-08-28 22:13:00,
2014-08-29 08:18:00,49.0,38.5,30.34,SE,135,0.0,0.0,67,0.00,,,0.00,Weather View 32 v70,2014-08-28 22:18:00,
2014-08-29 08:23:00,49.0,38.5,30.35,SE,135,0.0,0.0,67,0.00,,,0.00,Weather View 32 v70,2014-08-28 22:23:00,
2014-08-29 08:28:00,49.0,38.5,30.35,SE,135,0.0,0.0,67,0.00,,,0.00,Weather View 32 v70,2014-08-28 22:28:00,
2014-08-29 08:33:00,50.0,39.1,30.34,SE,135,0.0,0.0,66,0.00,,,0.00,Weather View 32 v70,2014-08-28 22:33:00,
2014-08-29 08:38:00,50.0,39.1,30.34,SE,135,0.0,0.0,66,0.00,,,0.00,Weather View 32 v70,2014-08-28 22:38:00,
2014-08-29 08:43:00,50.0,39.1,30.35,SE,135,0.0,0.0,66,0.00,,,0.00,Weather View 32 v70,2014-08-28 22:43:00,
2014-08-29 08:48:00,50.0,39.1,30.35,SE,135,0.0,0.0,66,0.00,,,0.00,Weather View 32 v70,2014-08-28 22:48:00,
2014-08-29 08:53:00,50.0,39.1,30.35,SE,135,0.0,0.0,66,0.00,,,0.00,Weather View 32 v70,2014-08-28 22:53:00,
2014-08-29 08:58:00,50.0,38.7,30.35,South,180,0.0,3.0,65,0.00,,,0.00,Weather View 32 v70,2014-08-28 22:58:00,
2014-08-29 09:03:00,50.0,38.7,30.35,SSW,202,1.0,3.0,65,0.00,,,0.00,Weather View 32 v70,2014-08-28 23:03:00,
2014-08-29 09:08:00,51.0,39.2,30.35,SSW,202,0.0,3.0,64,0.00,,,0.00,Weather View 32 v70,2014-08-28 23:08:00,
2014-08-29 09:13:00,51.0,38.8,30.36,SE,135,0.0,3.0,63,0.00,,,0.00,Weather View 32 v70,2014-08-28 23:13:00,
2014-08-29 09:18:00,52.0,40.2,30.36,SSE,157,0.0,3.0,64,0.00,,,0.00,Weather View 32 v70,2014-08-28 23:18:00,
2014-08-29 09:23:00,52.0,40.6,30.35,SE,135,0.0,3.0,65,0.00,,,0.00,Weather View 32 v70,2014-08-28 23:23:00,
2014-08-29 09:28:00,52.0,40.2,30.35,SE,135,0.0,3.0,64,0.00,,,0.00,Weather View 32 v70,2014-08-28 23:28:00,
2014-08-29 09:33:00,52.0,40.2,30.35,SE,135,0.0,3.0,64,0.00,,,0.00,Weather View 32 v70,2014-08-28 23:33:00,
2014-08-29 09:38:00,52.0,40.6,30.35,SE,135,0.0,3.0,65,0.00,,,0.00,Weather View 32 v70,2014-08-28 23:38:00,
2014-08-29 09:43:00,53.0,41.1,30.35,SE,135,0.0,3.0,64,0.00,,,0.00,Weather View 32 v70,2014-08-28 23:43:00,
2014-08-29 09:48:00,53.0,41.5,30.35,SE,135,0.0,3.0,65,0.00,,,0.00,Weather View 32 v70,2014-08-28 23:48:00,
2014-08-29 09:53:00,53.0,41.1,30.35,SE,135,0.0,3.0,64,0.00,,,0.00,Weather View 32 v70,2014-08-28 23:53:00,
2014-08-29 09:58:00,53.0,41.5,30.35,SE,135,0.0,2.0,65,0.00,,,0.00,Weather View 32 v70,2014-08-28 23:58:00,
2014-08-29 10:04:00,53.0,41.9,30.36,SE,135,0.0,2.0,66,0.00,,,0.00,Weather View 32 v70,2014-08-29 00:04:00,
2014-08-29 10:09:00,53.0,41.1,30.36,SE,135,0.0,0.0,64,0.00,,,0.00,Weather View 32 v70,2014-08-29 00:09:00,
2014-08-29 10:14:00,53.0,44.2,30.36,SE,135,0.0,0.0,72,0.00,,,0.00,Weather View 32 v70,2014-08-29 00:14:00,
2014-08-29 10:19:00,53.0,43.1,30.36,SSW,202,0.0,2.0,69,0.00,,,0.00,Weather View 32 v70,2014-08-29 00:19:00,
2014-08-29 10:24:00,53.0,43.5,30.36,South,180,0.0,2.0,70,0.00,,,0.00,Weather View 32 v70,2014-08-29 00:24:00,
2014-08-29 10:29:00,53.0,44.2,30.36,SSE,157,0.0,2.0,72,0.00,,,0.00,Weather View 32 v70,2014-08-29 00:29:00,
2014-08-29 10:34:00,53.0,42.3,30.35,SSE,157,0.0,2.0,67,0.00,,,0.00,Weather View 32 v70,2014-08-29 00:34:00,
2014-08-29 10:39:00,53.0,42.3,30.35,SSE,157,0.0,2.0,67,0.00,,,0.00,Weather View 32 v70,2014-08-29 00:39:00,
2014-08-29 10:44:00,54.0,44.0,30.35,SSE,157,0.0,2.0,69,0.00,,,0.00,Weather View 32 v70,2014-08-29 00:44:00,
2014-08-29 10:49:00,54.0,45.9,30.35,SSE,157,0.0,2.0,74,0.00,,,0.00,Weather View 32 v70,2014-08-29 00:49:00,
2014-08-29 10:54:00,54.0,45.5,30.35,SSE,157,0.0,2.0,73,0.00,,,0.00,Weather View 32 v70,2014-08-29 00:54:00,
2014-08-29 10:59:00,54.0,45.9,30.35,South,180,0.0,2.0,74,0.00,,,0.00,Weather View 32 v70,2014-08-29 00:59:00,
2014-08-29 11:04:00,54.0,45.9,30.35,South,180,0.0,2.0,74,0.00,,,0.00,Weather View 32 v70,2014-08-29 01:04:00,
2014-08-29 11:09:00,54.0,46.9,30.35,South,180,0.0,3.0,77,0.00,,,0.00,Weather View 32 v70,2014-08-29 01:09:00,
2014-08-29 11:14:00,54.0,47.6,30.35,South,180,0.0,5.0,79,0.00,,,0.00,Weather View 32 v70,2014-08-29 01:14:00,
2014-08-29 11:19:00,54.0,47.6,30.35,South,180,0.0,3.0,79,0.00,,,0.00,Weather View 32 v70,2014-08-29 01:19:00,
2014-08-29 11:24:00,54.0,47.6,30.35,South,180,0.0,6.0,79,0.00,,,0.00,Weather View 32 v70,2014-08-29 01:24:00,
2014-08-29 11:29:00,54.0,48.0,30.35,South,180,0.0,3.0,80,0.00,,,0.00,Weather View 32 v70,2014-08-29 01:29:00,
2014-08-29 11:34:00,54.0,48.0,30.35,South,180,0.0,4.0,80,0.00,,,0.00,Weather View 32 v70,2014-08-29 01:34:00,
2014-08-29 11:39:00,54.0,48.0,30.35,South,180,0.0,2.0,80,0.00,,,0.00,Weather View 32 v70,2014-08-29 01:39:00,
2014-08-29 11:44:00,54.0,48.3,30.34,South,180,0.0,2.0,81,0.00,,,0.00,Weather View 32 v70,2014-08-29 01:44:00,
2014-08-29 11:49:00,54.0,48.3,30.34,South,180,0.0,6.0,81,0.00,,,0.00,Weather View 32 v70,2014-08-29 01:49:00,
2014-08-29 11:54:00,54.0,48.3,30.34,South,180,0.0,6.0,81,0.00,,,0.00,Weather View 32 v70,2014-08-29 01:54:00,
2014-08-29 11:59:00,54.0,48.3,30.34,South,180,0.0,4.0,81,0.00,,,0.00,Weather View 32 v70,2014-08-29 01:59:00,
2014-08-29 12:04:00,54.0,48.3,30.33,South,180,0.0,9.0,81,0.00,,,0.00,Weather View 32 v70,2014-08-29 02:04:00,
2014-08-29 12:09:00,55.0,49.3,30.33,South,180,0.0,7.0,81,0.00,,,0.00,Weather View 32 v70,2014-08-29 02:09:00,
2014-08-29 12:14:00,55.0,49.6,30.33,South,180,0.0,6.0,82,0.00,,,0.00,Weather View 32 v70,2014-08-29 02:14:00,
2014-08-29 12:19:00,55.0,49.9,30.33,South,180,0.0,6.0,83,0.00,,,0.00,Weather View 32 v70,2014-08-29 02:19:00,
2014-08-29 12:24:00,55.0,49.3,30.33,South,180,0.0,4.0,81,0.00,,,0.00,Weather View 32 v70,2014-08-29 02:24:00,
2014-08-29 12:29:00,56.0,50.2,30.33,South,180,0.0,4.0,81,0.00,,,0.00,Weather View 32 v70,2014-08-29 02:29:00,